This is the latest recevied weather packets stored in our database for station/object 4S6DRJ-13. If no packets are shown the sender has not sent any weather packets the latest 10 day(s).
| Time | Temp. | Humidity | Pressure | Rain* | Wind** | Luminosity | Snow |
|---|---|---|---|---|---|---|---|
| 1777582998 | 26.67° C | 93% | 1006.7 hPa | 0 mm | 0.89 m/s, 147° | 0 W/m² | - |
| 1777582937 | 26.67° C | 93% | 1006.7 hPa | 0 mm | 0.89 m/s, 149° | 0 W/m² | - |
| 1777582876 | 26.67° C | 93% | 1006.9 hPa | 0 mm | 0.89 m/s, 162° | 0 W/m² | - |
| 1777582815 | 26.67° C | 93% | 1006.8 hPa | 0 mm | 0.89 m/s, 166° | 0 W/m² | - |
| 1777582754 | 26.67° C | 93% | 1006.8 hPa | 0 mm | 0.89 m/s, 169° | 0 W/m² | - |
| 1777582693 | 26.67° C | 93% | 1006.8 hPa | 0 mm | 0.45 m/s, 140° | 0 W/m² | - |
| 1777582632 | 26.67° C | 93% | 1006.9 hPa | 0 mm | 0.89 m/s, 149° | 0 W/m² | - |
| 1777582571 | 26.67° C | 93% | 1006.9 hPa | 0 mm | 0.89 m/s, 138° | 0 W/m² | - |
| 1777582510 | 26.67° C | 93% | 1006.8 hPa | 0 mm | 0.89 m/s, 130° | 0 W/m² | - |
| 1777582449 | 26.67° C | 93% | 1006.8 hPa | 0 mm | 0.89 m/s, 154° | 0 W/m² | - |
| 1777582388 | 26.67° C | 93% | 1006.6 hPa | 0 mm | 0.89 m/s, 140° | 0 W/m² | - |
| 1777582327 | 26.67° C | 93% | 1006.9 hPa | 0 mm | 0.45 m/s, 155° | 0 W/m² | - |
| 1777582266 | 26.67° C | 93% | 1006.8 hPa | 0 mm | 0.45 m/s, 151° | 0 W/m² | - |
| 1777582205 | 26.67° C | 93% | 1006.9 hPa | 0 mm | 0.89 m/s, 127° | 0 W/m² | - |
| 1777582144 | 26.67° C | 93% | 1006.8 hPa | 0 mm | 0.89 m/s, 115° | 0 W/m² | - |
| 1777582083 | 26.67° C | 93% | 1006.7 hPa | 0 mm | 0.89 m/s, 163° | 0 W/m² | - |
| 1777582022 | 26.67° C | 93% | 1006.7 hPa | 0 mm | 0.89 m/s, 157° | 0 W/m² | - |
| 1777581961 | 26.67° C | 93% | 1006.9 hPa | 0 mm | 0.45 m/s, 166° | 0 W/m² | - |
| 1777581900 | 26.67° C | 93% | 1006.8 hPa | 0 mm | 0 m/s | 0 W/m² | - |
| 1777581844 | 26.67° C | 93% | 1006.7 hPa | 0 mm | 0.89 m/s, 118° | 0 W/m² | - |
| 1777581778 | 26.67° C | 93% | 1006.9 hPa | 0 mm | 0.89 m/s, 153° | 0 W/m² | - |
| 1777581717 | 26.67° C | 93% | 1006.8 hPa | 0 mm | 0.89 m/s, 163° | 0 W/m² | - |
| 1777581656 | 26.67° C | 93% | 1006.6 hPa | 0 mm | 0.89 m/s, 142° | 0 W/m² | - |
| 1777581595 | 26.67° C | 93% | 1006.8 hPa | 0 mm | 0.45 m/s, 139° | 0 W/m² | - |
| 1777581538 | 26.67° C | 93% | 1006.8 hPa | 0 mm | 0.45 m/s, 140° | 0 W/m² | - |
* Rain latest hour (hover to see other rain measurements)
** Current wind speed in m/s (hover to see current wind gust speed)